Miscellaneous Local Product
Issued by NWS North Platte, NE

Home | Current Version | Previous Version | Text Only | Print | Product List | Glossary On
Versions: 1 2 3 4 5 6 7 8 9 10 11 12 13 14 15 16 17 18 19 20 21 22 23 24 25 26 27 28 29 30 31 32 33 34 35 36 37 38 39 40 41 42 43 44 45 46 47 48 49 50
000
AXUS43 KLBF 191410
MISLBF


WESTERN AND NORTH CENTRAL NEBRASKA HOURLY WEATHER ROUNDUP
NATIONAL WEATHER SERVICE NORTH PLATTE NE
900 AM CDT TUE SEP 19 2017

NOTE: "FAIR" INDICATES FEW OR NO CLOUDS BELOW 12,000 FEET WITH NO
SIGNIFICANT WEATHER AND/OR OBSTRUCTIONS TO VISIBILITY.

NOTE: STATIONS NOT REPORTING VARIABLES SUCH AS SKY/WEATHER OR
PRESSURE ARE PROVIDED BY RAWS AND APRS NETWORKS AND ARE NOT UNDER
NATIONAL WEATHER SERVICE QUALITY CONTROL.

...OBSERVATIONS IN AND NEAR THE EASTERN PANHANDLE OF NEBRASKA...

CITY           SKY/WX    TMP DP  RH WIND       PRES   REMARKS
PINE RIDGE     CLOUDY    64  55  72 S15       29.58S
GORDON         FAIR      62  56  80 S3        29.61F
CHADRON        CLOUDY    63  46  54 SW7       29.58F
ALLIANCE       CLOUDY    56  53  90 S9        29.63F
SIDNEY         CLOUDY    53  49  86 SW7       29.68F
$$

...OBSERVATIONS IN NORTHERN NEBRASKA AND FAR SOUTHERN SOUTH DAKOTA...

CITY           SKY/WX    TMP DP  RH WIND       PRES   REMARKS
WINNER         FAIR      68  62  81 S13       29.60F
VALENTINE      CLOUDY    70  61  73 S18G24    29.61F
THEDFORD       CLOUDY    66  63  87 S15       29.66F
AINSWORTH      CLOUDY    64  62  94 S12       29.65F
O`NEILL        CLOUDY    64  64 100 SE13      29.71F FOG
ORD            MOSUNNY   62  61  96 SE9       29.69F FOG
BROKEN BOW     CLOUDY    63  61  93 E5        29.69F
BUTTE            N/A     60  59  97 SE14        N/A
EWING            N/A     63  62  97 SE3         N/A
$$

...OBSERVATIONS IN SOUTHWEST NEBRASKA AND FAR NORTHEAST COLORADO...

CITY           SKY/WX    TMP DP  RH WIND       PRES   REMARKS
WRAY           FAIR      55  50  82 CALM      29.69F
HOLYOKE        FAIR      59  54  82 S6        29.68R
IMPERIAL       CLOUDY    63  59  87 S13       29.67F
OGALLALA       CLOUDY    63  60  89 S5        29.65F
NORTH PLATTE   CLOUDY    67  64  90 SE9       29.66F
MCCOOK           N/A     68  65  90 S9        29.67S
LEXINGTON      SUNNY     68  65  90 S12       29.69S FOG
STAPLETON        N/A     64  61  91 CALM        N/A
GOTHENBURG       N/A     61  58  91 E7          N/A
$$

...OBSERVATIONS IN CENTRAL LINCOLN COUNTY AREA...

CITY           SKY/WX    TMP DP  RH WIND       PRES   REMARKS
N.P. AIRPORT   CLOUDY    67  64  90 SE9       29.66F
N.P. DOWNTOWN    N/A     64  62  92 CALM        N/A
N.P. SOUTHEAST   N/A     64  62  92 E5          N/A
N.P. HILLCREST   N/A     63  62  95 SE6         N/A
$$

...SOME OBSERVATIONS FROM AROUND THE REGION...

CITY           SKY/WX    TMP DP  RH WIND       PRES   REMARKS
DENVER         CLOUDY    66  21  18 S14       29.74S
LIMON            N/A    N/A N/A N/A MISG      29.79S
ASPEN          CLOUDY    51  21  30 S10       29.98S
LARAMIE        CLOUDY    56  19  23 S8        29.81F
CASPER         CLOUDY    53  44  71 W9        29.70S
CHEYENNE       CLOUDY    53  32  44 SW6       29.76F
SCOTTSBLUFF    CLOUDY    54  51  90 SE8       29.65S
GRAND ISLAND   SUNNY     66  65  96 S16       29.73F
OMAHA          CLOUDY    69  65  86 SE12      29.83S FOG
SIOUX FALLS    DRIZZLE   67  66  97 S13       29.77F FOG
PIERRE         CLOUDY    64  60  87 SE15G24   29.55F
RAPID CITY     SUNNY     57  48  72 S7        29.54F
BISMARCK       CLOUDY    63  47  55 SE22G31   29.51F
KANSAS CITY    PTSUNNY   71  68  90 S10       29.90R
HILL CITY      SUNNY     70  64  81 S14       29.72F
WICHITA        MOSUNNY   74  67  78 S14       29.81F
DODGE CITY     SUNNY     70  63  78 S14G21    29.78R
OKLAHOMA CITY  MOSUNNY   75  70  84 S17       29.87F
DALLAS         PTSUNNY   79  73  82 S16       29.91S
AMARILLO       SUNNY     65  60  84 SW20      29.90S
$$




USA.gov is the U.S. government's official web portal to all federal, state and local government web resources and services.